FW1568 Weather Reports


time (UTC)temp
C
wind
direction
speed
KPH
gust
KPH
rain 1hr
cm
rain 24hr
cm
rain mn
cm
humidity
%
barometer
mb
20260505091526 5 225 4.8 14.5 0.00 0.05 0.00 84 1010.7
20260505090035 5 196 4.8 16.1 0.00 0.05 0.00 84 1010.6
20260505084513 5 214 3.2 14.5 0.00 0.05 0.00 83 1010.2
20260505083014 5 197 6.4 14.5 0.00 0.05 0.00 83 1010.0
20260505081513 5 217 4.8 11.3 0.00 0.05 0.00 82 1009.9
20260505080006 6 205 8.0 14.5 0.00 0.10 0.00 81 1009.6
20260505074504 6 190 3.2 12.9 0.00 0.10 0.00 81 1009.4
20260505073002 6 222 4.8 16.1 0.00 0.10 0.00 83 1009.1
20260505071603 6 203 4.8 14.5 0.00 0.10 0.00 83 1009.0
20260505070058 6 224 3.2 12.9 0.00 0.15 0.00 83 1008.7
20260505064554 6 210 4.8 11.3 0.00 0.15 0.00 82 1008.5
20260505063052 6 215 1.6 6.4 0.00 0.15 0.00 81 1008.2
20260505061554 6 214 1.6 8.0 0.00 0.15 0.00 81 1008.0
20260505060046 6 215 1.6 9.7 0.00 0.18 0.00 80 1007.6
20260505054601 6 204 4.8 12.9 0.00 0.18 0.00 79 1007.3
20260505053050 6 202 3.2 11.3 0.00 0.18 0.00 78 1006.9
20260505051539 6 206 1.6 12.9 0.00 0.18 0.00 77 1007.0
20260505041529 7 206 3.2 8.0 0.00 0.23 0.00 74 1006.1
20260505040027 8 223 4.8 16.1 0.00 0.23 0.00 73 1005.8
20260505034523 8 221 8.0 14.5 0.00 0.23 0.00 72 1005.5
20260505033022 8 217 8.0 24.1 0.00 0.23 0.00 72 1005.1
20260505031537 8 217 8.0 17.7 0.00 0.23 0.00 72 1004.8
20260505030015 9 204 8.0 17.7 0.00 0.25 0.23 71 1004.7
20260505024522 8 212 12.9 22.5 0.00 0.25 0.23 71 1004.6
20260505023013 8 200 9.7 20.9 0.00 0.25 0.23 71 1004.5
20260505021517 8 239 4.8 22.5 0.00 0.25 0.23 70 1004.4
20260505020025 8 205 9.7 20.9 0.00 0.28 0.23 69 1004.2
20260505014510 9 170 8.0 24.1 0.00 0.28 0.23 69 1004.1
20260505013009 10 214 4.8 16.1 0.00 0.28 0.23 69 1004.2
20260505011509 10 230 6.4 24.1 0.00 0.28 0.23 68 1004.2
20260505010009 10 231 9.7 25.7 0.00 0.41 0.23 66 1004.3
20260505004519 10 220 6.4 20.9 0.00 0.41 0.23 66 1004.1
20260505003006 10 219 8.0 19.3 0.00 0.41 0.23 64 1004.2
20260505001506 10 227 9.7 33.8 0.00 0.41 0.23 63 1003.7
20260505000007 10 220 9.7 19.3 0.00 0.81 0.23 61 1003.5
20260504234503 10 201 4.8 14.5 0.00 0.81 0.23 62 1003.2
20260504233106 10 200 3.2 14.5 0.00 0.81 0.23 62 1002.9
20260504231559 10 196 8.0 17.7 0.00 0.81 0.23 60 1002.7
20260504230107 10 212 6.4 20.9 0.00 1.22 0.23 60 1002.6
20260504224556 11 206 4.8 16.1 0.00 1.22 0.23 59 1002.4
20260504223103 11 242 8.0 19.3 0.00 1.22 0.23 56 1002.4
20260504221602 11 262 8.0 33.8 0.00 1.22 0.23 55 1002.1
20260504220058 11 266 6.4 22.5 0.00 1.68 0.23 56 1002.1
20260504214553 11 188 6.4 29.0 0.00 1.68 0.23 55 1002.1
20260504213050 12 173 9.7 33.8 0.00 1.68 0.23 54 1001.8
20260504211549 11 206 6.4 25.7 0.00 1.68 0.23 55 1001.9
20260504210051 12 209 11.3 25.7 0.00 1.83 0.23 53 1001.7
20260504204545 12 214 6.4 38.6 0.00 1.83 0.23 54 1001.5
20260504203047 12 218 11.3 29.0 0.00 1.83 0.23 54 1000.8
20260504201541 12 219 11.3 32.2 0.00 1.83 0.23 56 1000.7
20260504200039 12 306 8.0 27.4 0.00 1.83 0.23 59 1000.4
20260504194538 12 231 12.9 29.0 0.00 1.83 0.23 60 1000.1
20260504193034 12 228 8.0 32.2 0.00 1.83 0.23 63 999.8
20260504191530 11 266 9.7 41.8 0.00 1.83 0.23 64 999.6
20260504190028 10 298 6.4 43.5 0.00 1.88 0.23 68 999.4
20260504184524 10 302 8.0 32.2 0.00 1.88 0.23 70 999.2
20260504183022 10 297 6.4 35.4 0.00 1.88 0.23 72 999.1
20260504181522 8 223 11.3 32.2 0.00 1.88 0.23 75 998.8
20260504180018 8 202 8.0 25.7 0.00 1.88 0.23 76 998.7
20260504174515 8 220 9.7 29.0 0.00 1.88 0.23 77 998.5
20260504173012 8 261 4.8 33.8 0.00 1.88 0.23 78 998.2
20260504171509 7 191 6.4 33.8 0.00 1.88 0.23 81 998.0
20260504170106 6 294 6.4 35.4 0.00 1.88 0.23 82 997.9
20260504160105 6 243 11.3 35.4 0.00 1.88 0.23 83 996.4